����,�O�C���x,�����t���O,�O�C���x,�����t���O,�󒲎����x,�����t���O,�󒲎����x,�����t���O,,�����t���O,����,�����t���O
2003/7/1 0:00,20.5,0,99,0,76,0,23.2,0,,0,22.8,0
2003/7/1 0:15,20.4,0,99,0,75.9,0,23.2,0,,0,22.8,0
2003/7/1 0:30,20.5,0,99,0,75.7,0,23.2,0,,0,22.9,0
2003/7/1 0:45,20.8,0,99,0,75.8,0,23.2,0,,0,22.9,0
2003/7/1 1:00,21,0,99,0,75.8,0,23.2,0,,0,22.8,0
2003/7/1 1:15,20.9,0,98,0,75.8,0,23.2,0,,0,22.8,0
2003/7/1 1:30,21,0,96,0,75.6,0,23.3,0,,0,22.8,0
2003/7/1 1:45,20.9,0,97,0,75.2,0,23,0,,0,22.7,0
2003/7/1 2:00,20.9,0,97,0,75.7,0,23.1,0,,0,22.6,0
2003/7/1 2:15,20.8,0,97,0,76.2,0,23.1,0,,0,22.6,0
2003/7/1 2:30,20.8,0,98,0,76.5,0,23.1,0,,0,22.5,0
2003/7/1 2:45,20.7,0,99,0,76.7,0,23.1,0,,0,22.5,0
2003/7/1 3:00,20.8,0,99,0,77,0,23.1,0,,0,22.5,0
2003/7/1 3:15,20.8,0,99,0,77.3,0,23.1,0,,0,22.5,0
2003/7/1 3:30,20.8,0,99,0,77.4,0,23.1,0,,0,22.4,0
2003/7/1 3:45,20.8,0,99,0,77.5,0,23.2,0,,0,22.4,0
2003/7/1 4:00,20.9,0,99,0,77.6,0,23.2,0,,0,22.4,0
2003/7/1 4:15,20.9,0,99,0,77.9,0,23.2,0,,0,22.5,0
2003/7/1 4:30,20.9,0,99,0,77.9,0,23.2,0,,0,22.5,0
2003/7/1 4:45,21.5,0,99,0,78.3,0,23.2,0,,0,22.6,0
2003/7/1 5:00,21.9,0,99,0,78.4,0,23.2,0,,0,22.6,0
2003/7/1 5:15,22,0,99,0,78.8,0,23.2,0,,0,22.7,0
2003/7/1 5:30,21.5,0,99,0,79,0,23.2,0,,0,22.7,0
2003/7/1 5:45,21.6,0,99,0,78.8,0,23.2,0,,0,22.8,0
2003/7/1 6:00,21.6,0,99,0,79.1,0,23.2,0,,0,22.8,0
2003/7/1 6:15,21.5,0,99,0,78.9,0,23.3,0,,0,22.8,0
2003/7/1 6:30,21.4,0,99,0,78.7,0,23.3,0,,0,22.9,0
2003/7/1 6:45,21.5,0,99,0,78.1,0,23.3,0,,0,22.8,0
2003/7/1 7:00,21.5,0,99,0,78,0,23.3,0,,0,22.9,0
2003/7/1 7:15,21.5,0,99,0,77.5,0,23.3,0,,0,22.9,0
2003/7/1 7:30,21.4,0,99,0,77.2,0,23.3,0,,0,22.9,0
2003/7/1 7:45,21.5,0,99,0,77.2,0,23.3,0,,0,22.9,0
2003/7/1 8:00,21.6,0,99,0,77.7,0,23.1,0,,0,22.9,0
2003/7/1 8:15,22,0,99,0,79.5,0,23.1,0,,0,22.9,0
2003/7/1 8:30,22.6,0,99,0,79.7,0,23.1,0,,0,22.9,0
2003/7/1 8:45,23,0,99,0,80.1,0,23.1,0,,0,23,0
2003/7/1 9:00,22.8,0,99,0,79.9,0,23.2,0,,0,23.1,0
2003/7/1 9:15,22.8,0,99,0,79.3,0,23.1,0,,0,23.1,0
2003/7/1 9:30,23.4,0,99,0,79.4,0,22.9,0,,0,23.2,0
2003/7/1 9:45,23,0,99,0,79.4,0,23.3,0,,0,23.3,0
2003/7/1 10:00,22.9,0,99,0,79.9,0,23.3,0,,0,23.3,0
2003/7/1 10:15,22.9,0,99,0,79.5,0,23.3,0,,0,23.3,0
2003/7/1 10:30,23,0,99,0,78.8,0,23.3,0,,0,23.4,0
2003/7/1 10:45,22.6,0,99,0,78.3,0,23.4,0,,0,23.4,0
2003/7/1 11:00,22.4,0,99,0,78.1,0,23.4,0,,0,23.4,0
2003/7/1 11:15,23.1,0,99,0,78.3,0,23.4,0,,0,23.4,0
2003/7/1 11:30,23.9,0,99,0,79.2,0,23.4,0,,0,23.5,0
2003/7/1 11:45,24.7,0,99,0,79.9,0,23.4,0,,0,23.5,0
2003/7/1 12:00,24.4,0,97,0,80.1,0,23.4,0,,0,23.6,0
2003/7/1 12:15,23.5,0,98,0,79.5,0,23.4,0,,0,23.6,0
2003/7/1 12:30,24,0,99,0,79.7,0,23.5,0,,0,23.7,0
2003/7/1 12:45,24.2,0,98,0,79.8,0,23.5,0,,0,23.7,0
2003/7/1 13:00,24.1,0,97,0,79.6,0,23.5,0,,0,23.7,0
2003/7/1 13:15,23.7,0,97,0,79.6,0,23.5,0,,0,23.7,0
2003/7/1 13:30,23.5,0,98,0,79.4,0,23.5,0,,0,23.7,0
2003/7/1 13:45,23.2,0,99,0,79.1,0,22.9,0,,0,23.7,0
2003/7/1 14:00,23.2,0,99,0,78.9,0,22.9,0,,0,23.7,0
2003/7/1 14:15,22.9,0,99,0,78.9,0,23,0,,0,23.7,0
2003/7/1 14:30,22.5,0,99,0,79,0,23,0,,0,23.7,0
2003/7/1 14:45,22.3,0,99,0,79.4,0,23,0,,0,23.6,0
2003/7/1 15:00,22.5,0,99,0,79.8,0,23,0,,0,23.6,0
2003/7/1 15:15,22.3,0,99,0,79.8,0,23.1,0,,0,23.6,0
2003/7/1 15:30,22.4,0,99,0,79.4,0,23.1,0,,0,23.6,0
2003/7/1 15:45,22.6,0,99,0,79.5,0,23.1,0,,0,23.6,0
2003/7/1 16:00,22.7,0,98,0,78.9,0,23.1,0,,0,23.7,0
2003/7/1 16:15,22.8,0,98,0,79.1,0,23.1,0,,0,23.7,0
2003/7/1 16:30,22.8,0,98,0,78.5,0,23.2,0,,0,23.6,0
2003/7/1 16:45,22.6,0,98,0,79.8,0,23.2,0,,0,23.6,0
2003/7/1 17:00,22.1,0,98,0,79.9,0,23.2,0,,0,23.5,0
2003/7/1 17:15,22.1,0,99,0,79.9,0,23.2,0,,0,23.5,0
2003/7/1 17:30,22,0,99,0,79.8,0,23.2,0,,0,23.5,0
2003/7/1 17:45,22,0,99,0,80.2,0,23.3,0,,0,23.5,0
2003/7/1 18:00,22,0,99,0,79.8,0,23.3,0,,0,23.5,0
2003/7/1 18:15,21.6,0,99,0,79.7,0,23.3,0,,0,23.5,0
2003/7/1 18:30,21.8,0,99,0,79.4,0,23.3,0,,0,23.4,0
2003/7/1 18:45,21.8,0,99,0,79.3,0,23.3,0,,0,23.4,0
2003/7/1 19:00,21.5,0,99,0,79,0,23.3,0,,0,23.4,0
2003/7/1 19:15,21.4,0,99,0,79,0,22.8,0,,0,23.4,0
2003/7/1 19:30,21.4,0,99,0,79.1,0,23,0,,0,23.4,0
2003/7/1 19:45,21.4,0,99,0,78.8,0,23,0,,0,23.3,0
2003/7/1 20:00,21.3,0,99,0,78.3,0,23,0,,0,23.3,0
2003/7/1 20:15,21.1,0,99,0,78.1,0,22.7,0,,0,23.3,0
2003/7/1 20:30,21,0,99,0,78.3,0,22.7,0,,0,23.3,0
2003/7/1 20:45,20.8,0,99,0,78.1,0,22.7,0,,0,23.1,0
2003/7/1 21:00,20.9,0,99,0,77.8,0,22.7,0,,0,22.9,0
2003/7/1 21:15,20.9,0,99,0,78.2,0,22.7,0,,0,22.8,0
2003/7/1 21:30,21,0,99,0,78.3,0,22.7,0,,0,22.9,0
2003/7/1 21:45,21,0,99,0,78,0,22.7,0,,0,22.9,0
2003/7/1 22:00,21,0,99,0,78.2,0,22.8,0,,0,23,0
2003/7/1 22:15,20.9,0,99,0,77.8,0,22.8,0,,0,23,0
2003/7/1 22:30,20.9,0,99,0,78.3,0,22.8,0,,0,23,0
2003/7/1 22:45,20.9,0,99,0,77.8,0,22.8,0,,0,23,0
2003/7/1 23:00,20.9,0,99,0,77.5,0,22.6,0,,0,23,0
2003/7/1 23:15,21,0,99,0,77.4,0,22.6,0,,0,23,0
2003/7/1 23:30,20.9,0,99,0,78.2,0,22.6,0,,0,23,0
2003/7/1 23:45,20.8,0,99,0,78.4,0,22.7,0,,0,23,0
2003/7/2 0:00,20.7,0,99,0,78.5,0,22.7,0,,0,23,0
2003/7/2 0:15,20.4,0,99,0,78.2,0,22.6,0,,0,23,0
2003/7/2 0:30,20.4,0,99,0,77.9,0,22.6,0,,0,23,0
2003/7/2 0:45,20.4,0,99,0,77.8,0,22.7,0,,0,23,0
2003/7/2 1:00,20.3,0,99,0,77.5,0,22.7,0,,0,22.9,0
2003/7/2 1:15,20.3,0,99,0,77.3,0,22.7,0,,0,22.9,0
2003/7/2 1:30,20.4,0,99,0,77.1,0,22.7,0,,0,22.9,0
2003/7/2 1:45,20.4,0,99,0,77.3,0,22.7,0,,0,22.8,0
2003/7/2 2:00,20.5,0,99,0,77.5,0,22.7,0,,0,22.8,0
2003/7/2 2:15,20.5,0,99,0,77.5,0,22.7,0,,0,22.7,0
2003/7/2 2:30,20.3,0,99,0,77.7,0,22.7,0,,0,22.6,0
2003/7/2 2:45,20.1,0,99,0,77.9,0,22.7,0,,0,22.6,0
2003/7/2 3:00,20,0,99,0,77.9,0,22.7,0,,0,22.5,0
2003/7/2 3:15,19.8,0,99,0,77.6,0,22.7,0,,0,22.5,0
2003/7/2 3:30,19.7,0,99,0,77.6,0,22.7,0,,0,22.5,0
2003/7/2 3:45,19.5,0,99,0,77.5,0,22.8,0,,0,22.4,0
2003/7/2 4:00,19.4,0,99,0,77.5,0,22.8,0,,0,22.4,0
2003/7/2 4:15,19.3,0,99,0,77.5,0,22.8,0,,0,22.4,0
2003/7/2 4:30,19.2,0,99,0,77.3,0,22.8,0,,0,22.3,0
2003/7/2 4:45,19.2,0,99,0,77.3,0,22.8,0,,0,22.3,0
2003/7/2 5:00,19.2,0,99,0,77.3,0,22.8,0,,0,22.2,0
2003/7/2 5:15,19.2,0,99,0,77.2,0,22.8,0,,0,22.2,0
2003/7/2 5:30,19.2,0,99,0,77.2,0,22.8,0,,0,22.1,0
2003/7/2 5:45,19.3,0,99,0,77.2,0,22.8,0,,0,22,0
2003/7/2 6:00,19.4,0,99,0,77.1,0,22.8,0,,0,21.9,0
2003/7/2 6:15,19.5,0,99,0,77.1,0,22.8,0,,0,21.9,0
2003/7/2 6:30,19.6,0,99,0,77.1,0,22.7,0,,0,21.9,0
2003/7/2 6:45,19.7,0,99,0,77.2,0,22.7,0,,0,21.9,0
2003/7/2 7:00,19.9,0,99,0,77.3,0,22.4,0,,0,21.8,0
2003/7/2 7:15,20,0,99,0,77.2,0,22.4,0,,0,21.9,0
2003/7/2 7:30,20.3,0,99,0,77.6,0,22.8,0,,0,21.9,0
2003/7/2 7:45,20.5,0,99,0,78,0,22.8,0,,0,21.9,0
2003/7/2 8:00,20.7,0,96,0,78.8,0,22.8,0,,0,21.9,0
2003/7/2 8:15,21.1,0,93,0,78.6,0,22.8,0,,0,22,0
2003/7/2 8:30,21.6,0,91,0,79.2,0,22.7,0,,0,22.1,0
2003/7/2 8:45,22.2,0,89,0,79.5,0,22.7,0,,0,22.3,0
2003/7/2 9:00,22.9,0,83,0,79.4,0,22.7,0,,0,22.5,0
2003/7/2 9:15,23.8,0,77,0,78.4,0,22.7,0,,0,22.7,0
2003/7/2 9:30,25.1,0,73,0,78,0,22.7,0,,0,22.8,0
2003/7/2 9:45,26.4,0,69,0,78.4,0,22.6,0,,0,23,0
2003/7/2 10:00,27.2,0,64,0,78,0,22.6,0,,0,23.2,0
2003/7/2 10:15,27.7,0,59,0,78.6,0,22.8,0,,0,23.4,0
2003/7/2 10:30,27.9,0,61,0,78.2,0,23,0,,0,23.5,0
2003/7/2 10:45,29.1,0,57,0,77.8,0,23.1,0,,0,23.7,0
2003/7/2 11:00,28.7,0,56,0,77.6,0,23.1,0,,0,23.8,0
2003/7/2 11:15,29.1,0,56,0,77.4,0,23.1,0,,0,23.9,0
2003/7/2 11:30,30.4,0,52,0,76.9,0,23.1,0,,0,24,0
2003/7/2 11:45,30.8,0,45,0,76.5,0,23.1,0,,0,24.1,0
2003/7/2 12:00,29.5,0,52,0,76.3,0,23.1,0,,0,24.1,0
2003/7/2 12:15,30.6,0,50,0,76.2,0,23.1,0,,0,24.2,0
2003/7/2 12:30,30.6,0,48,0,75.7,0,23.2,0,,0,24.3,0
2003/7/2 12:45,30.8,0,50,0,75.2,0,23.2,0,,0,24.3,0
2003/7/2 13:00,30.9,0,49,0,75.1,0,23.2,0,,0,24.4,0
2003/7/2 13:15,31.2,0,47,0,74.4,0,23.2,0,,0,24.5,0
2003/7/2 13:30,31,0,46,0,72.5,0,23.3,0,,0,24.6,0
2003/7/2 13:45,31,0,48,0,72.4,0,22.9,0,,0,24.6,0
2003/7/2 14:00,31.4,0,47,0,72.3,0,23,0,,0,24.7,0
2003/7/2 14:15,30.9,0,49,0,73.6,0,22.7,0,,0,24.8,0
2003/7/2 14:30,31,0,48,0,74.6,0,22.8,0,,0,24.9,0
2003/7/2 14:45,30,0,50,0,74.8,0,22.8,0,,0,25.1,0
2003/7/2 15:00,29.3,0,54,0,74.6,0,22.8,0,,0,25.1,0
2003/7/2 15:15,28,0,53,0,74.7,0,22.9,0,,0,25.1,0
2003/7/2 15:30,27.8,0,55,0,74.1,0,22.9,0,,0,25.1,0
2003/7/2 15:45,28.2,0,54,0,74.1,0,22.9,0,,0,25.1,0
2003/7/2 16:00,28.2,0,55,0,74,0,23,0,,0,25.2,0
2003/7/2 16:15,27.2,0,58,0,74.1,0,23,0,,0,25.2,0
2003/7/2 16:30,27.7,0,57,0,74.3,0,23.1,0,,0,25.2,0
2003/7/2 16:45,27.7,0,58,0,73.9,0,23.1,0,,0,25.2,0
2003/7/2 17:00,27.2,0,61,0,74.2,0,23.1,0,,0,25.2,0
2003/7/2 17:15,27.1,0,61,0,74,0,23.2,0,,0,25.2,0
2003/7/2 17:30,27.1,0,62,0,74.5,0,23.2,0,,0,25.1,0
2003/7/2 17:45,27.1,0,61,0,74.6,0,23.2,0,,0,25.1,0
2003/7/2 18:00,27.4,0,61,0,75.2,0,23.3,0,,0,25.1,0
2003/7/2 18:15,27.5,0,62,0,76.2,0,23.1,0,,0,25.1,0
2003/7/2 18:30,27.1,0,64,0,76,0,23.2,0,,0,25.1,0
2003/7/2 18:45,27,0,65,0,75.5,0,23.2,0,,0,25.1,0
2003/7/2 19:00,26.8,0,67,0,75.7,0,23.5,0,,0,25.2,0
2003/7/2 19:15,26.4,0,70,0,75.7,0,23.5,0,,0,25.2,0
2003/7/2 19:30,26.2,0,71,0,75.7,0,23.6,0,,0,25.2,0
2003/7/2 19:45,26.2,0,71,0,75.2,0,23.6,0,,0,25.2,0
2003/7/2 20:00,26.1,0,71,0,74.9,0,23.6,0,,0,25.2,0
2003/7/2 20:15,25.9,0,72,0,74.5,0,23.6,0,,0,25.2,0
2003/7/2 20:30,25.8,0,74,0,74.9,0,23.7,0,,0,25.2,0
2003/7/2 20:45,25.6,0,75,0,75.1,0,23.7,0,,0,25.2,0
2003/7/2 21:00,25.5,0,75,0,75.1,0,23.7,0,,0,25.2,0
2003/7/2 21:15,25.4,0,76,0,75.2,0,23.8,0,,0,25.2,0
2003/7/2 21:30,25.3,0,78,0,76,0,23.8,0,,0,25.2,0
2003/7/2 21:45,25.2,0,79,0,76.5,0,23.8,0,,0,25.2,0
2003/7/2 22:00,25.1,0,80,0,76.8,0,23.8,0,,0,25.2,0
2003/7/2 22:15,24.9,0,80,0,76.6,0,23.3,0,,0,25.2,0
2003/7/2 22:30,24.9,0,79,0,76.3,0,23.4,0,,0,25.1,0
2003/7/2 22:45,24.8,0,79,0,75.8,0,23.4,0,,0,25.1,0
2003/7/2 23:00,24.8,0,79,0,75.4,0,23.4,0,,0,25.1,0
2003/7/2 23:15,24.7,0,79,0,75.3,0,23.5,0,,0,25,0
2003/7/2 23:30,24.6,0,81,0,75.6,0,23.5,0,,0,25,0
2003/7/2 23:45,24.5,0,83,0,76.7,0,23.3,0,,0,25,0
2003/7/3 0:00,24.5,0,85,0,77.4,0,23.3,0,,0,25,0
2003/7/3 0:15,24.5,0,86,0,78,0,23.4,0,,0,25,0
2003/7/3 0:30,24.4,0,87,0,78.3,0,23.4,0,,0,24.9,0
2003/7/3 0:45,24.3,0,87,0,78.5,0,23.4,0,,0,24.9,0
2003/7/3 1:00,24.3,0,87,0,78.6,0,23.5,0,,0,24.9,0
2003/7/3 1:15,24.2,0,87,0,79,0,23.5,0,,0,24.9,0
2003/7/3 1:30,24.2,0,87,0,78.8,0,23,0,,0,24.9,0
2003/7/3 1:45,24.1,0,88,0,79.5,0,23.1,0,,0,24.9,0
2003/7/3 2:00,24,0,90,0,80,0,23.2,0,,0,24.9,0
2003/7/3 2:15,23.9,0,91,0,80.6,0,23.2,0,,0,24.9,0
2003/7/3 2:30,23.9,0,91,0,81,0,23.3,0,,0,24.9,0
2003/7/3 2:45,23.9,0,92,0,81.3,0,23.3,0,,0,24.9,0
2003/7/3 3:00,23.9,0,93,0,81.4,0,23.3,0,,0,24.9,0
2003/7/3 3:15,23.8,0,94,0,82.2,0,23.4,0,,0,24.9,0
2003/7/3 3:30,23.8,0,94,0,82.4,0,23.4,0,,0,24.9,0
2003/7/3 3:45,23.9,0,94,0,82.8,0,23.4,0,,0,24.9,0
2003/7/3 4:00,24,0,93,0,82.7,0,23.5,0,,0,24.9,0
2003/7/3 4:15,24.2,0,92,0,82.5,0,23.5,0,,0,24.9,0
2003/7/3 4:30,24.3,0,91,0,82,0,23.6,0,,0,24.9,0
2003/7/3 4:45,24.4,0,90,0,81.8,0,23.6,0,,0,24.9,0
2003/7/3 5:00,24.5,0,89,0,81.5,0,23.6,0,,0,24.9,0
2003/7/3 5:15,24.6,0,89,0,81.1,0,23.7,0,,0,24.8,0
2003/7/3 5:30,24.7,0,88,0,80.9,0,23.7,0,,0,24.8,0
2003/7/3 5:45,24.8,0,87,0,81,0,23.7,0,,0,24.8,0
2003/7/3 6:00,24.8,0,87,0,80.7,0,23.8,0,,0,24.8,0
2003/7/3 6:15,24.9,0,86,0,80,0,23.8,0,,0,24.8,0
2003/7/3 6:30,25,0,86,0,79.5,0,23.8,0,,0,24.8,0
2003/7/3 6:45,25.1,0,86,0,79.4,0,23.9,0,,0,24.8,0
2003/7/3 7:00,25.2,0,85,0,79,0,23.2,0,,0,24.9,0
2003/7/3 7:15,25.2,0,86,0,80.2,0,23.2,0,,0,24.9,0
2003/7/3 7:30,25.4,0,85,0,80.2,0,23.3,0,,0,24.9,0
2003/7/3 7:45,25.5,0,85,0,80.5,0,23.2,0,,0,25,0
2003/7/3 8:00,25.5,0,85,0,81,0,23.2,0,,0,25,0
2003/7/3 8:15,25.6,0,85,0,80.7,0,23.2,0,,0,25,0
2003/7/3 8:30,25.7,0,85,0,80.1,0,23.3,0,,0,25.1,0
2003/7/3 8:45,25.7,0,86,0,79.5,0,23.3,0,,0,25.1,0
2003/7/3 9:00,25.8,0,87,0,79.2,0,23.1,0,,0,25.1,0
2003/7/3 9:15,25.8,0,88,0,79.4,0,23.1,0,,0,25.2,0
2003/7/3 9:30,26.1,0,88,0,79.9,0,23.2,0,,0,25.2,0
2003/7/3 9:45,26.4,0,86,0,79.9,0,23.2,0,,0,25.2,0
2003/7/3 10:00,26.3,0,86,0,79.8,0,23.2,0,,0,25.3,0
2003/7/3 10:15,26.7,0,85,0,80,0,23.3,0,,0,25.3,0
2003/7/3 10:30,26.8,0,84,0,79.9,0,23.3,0,,0,25.3,0
2003/7/3 10:45,26.7,0,84,0,79.9,0,23.4,0,,0,25.5,0
2003/7/3 11:00,26.8,0,83,0,81,0,23.4,0,,0,25.5,0
2003/7/3 11:15,26.7,0,82,0,80.1,0,23.2,0,,0,25.5,0
2003/7/3 11:30,26.6,0,85,0,80.3,0,23.2,0,,0,25.6,0
2003/7/3 11:45,26.5,0,86,0,83.2,0,23.3,0,,0,25.6,0
2003/7/3 12:00,26.4,0,86,0,85.1,0,23.3,0,,0,25.6,0
2003/7/3 12:15,26.4,0,87,0,84.1,0,23.4,0,,0,25.7,0
2003/7/3 12:30,26.6,0,87,0,82.6,0,23.4,0,,0,25.7,0
2003/7/3 12:45,26.4,0,87,0,82.2,0,23.4,0,,0,25.7,0
2003/7/3 13:00,26.3,0,88,0,81.8,0,23.5,0,,0,25.8,0
2003/7/3 13:15,26.2,0,89,0,82,0,23.5,0,,0,25.8,0
2003/7/3 13:30,26.1,0,89,0,81.1,0,23.6,0,,0,25.8,0
2003/7/3 13:45,26.2,0,89,0,81.4,0,23.2,0,,0,25.7,0
2003/7/3 14:00,25.9,0,90,0,81.1,0,23.3,0,,0,25.7,0
2003/7/3 14:15,26,0,91,0,80.5,0,23.3,0,,0,25.7,0
2003/7/3 14:30,26,0,91,0,80.9,0,23.2,0,,0,25.7,0
2003/7/3 14:45,26.4,0,89,0,80.9,0,23.3,0,,0,25.7,0
2003/7/3 15:00,26.4,0,89,0,81.2,0,23.3,0,,0,25.8,0
2003/7/3 15:15,26.5,0,89,0,81.1,0,23.4,0,,0,25.8,0
2003/7/3 15:30,26.6,0,87,0,80.9,0,23.4,0,,0,25.8,0
2003/7/3 15:45,26.5,0,87,0,80.7,0,23.4,0,,0,25.8,0
2003/7/3 16:00,26.5,0,88,0,80.7,0,23.5,0,,0,25.8,0
2003/7/3 16:15,26.5,0,88,0,80.7,0,23.5,0,,0,25.8,0
2003/7/3 16:30,26.4,0,88,0,80.8,0,23.6,0,,0,25.8,0
2003/7/3 16:45,26.5,0,88,0,80.6,0,23.6,0,,0,25.8,0
2003/7/3 17:00,26.4,0,88,0,80.6,0,23.2,0,,0,25.8,0
2003/7/3 17:15,26.3,0,89,0,80.9,0,23.2,0,,0,25.8,0
2003/7/3 17:30,26.3,0,88,0,80.5,0,23.3,0,,0,25.8,0
2003/7/3 17:45,26.4,0,88,0,80.2,0,23.3,0,,0,25.8,0
2003/7/3 18:00,26.4,0,88,0,80.7,0,23.3,0,,0,25.8,0
2003/7/3 18:15,26.4,0,88,0,80.5,0,23.4,0,,0,25.8,0
2003/7/3 18:30,26.3,0,88,0,80,0,23.4,0,,0,25.8,0
2003/7/3 18:45,26.3,0,89,0,80.1,0,23.5,0,,0,25.8,0
2003/7/3 19:00,26.3,0,89,0,80.5,0,23.5,0,,0,25.9,0
2003/7/3 19:15,26.2,0,89,0,80.3,0,23.5,0,,0,25.9,0
2003/7/3 19:30,26.3,0,89,0,80.3,0,23.6,0,,0,25.9,0
2003/7/3 19:45,26.2,0,90,0,80.6,0,23.6,0,,0,25.9,0
2003/7/3 20:00,25.9,0,92,0,80.1,0,23.7,0,,0,26,0
2003/7/3 20:15,25.9,0,93,0,80.3,0,23.7,0,,0,26,0
2003/7/3 20:30,25.8,0,94,0,80.4,0,23.7,0,,0,26,0
2003/7/3 20:45,25.8,0,94,0,80.5,0,23.8,0,,0,26,0
2003/7/3 21:00,25.7,0,94,0,80.7,0,23.8,0,,0,26,0
2003/7/3 21:15,25.6,0,94,0,80.4,0,23.8,0,,0,26,0
2003/7/3 21:30,25.4,0,96,0,80.6,0,23.9,0,,0,25.9,0
2003/7/3 21:45,25.3,0,98,0,82.2,0,23.9,0,,0,25.9,0
2003/7/3 22:00,25.2,0,96,0,82.6,0,23.9,0,,0,25.9,0
2003/7/3 22:15,25.2,0,94,0,81.3,0,23.4,0,,0,25.8,0
2003/7/3 22:30,25.1,0,90,0,81.1,0,23.4,0,,0,25.8,0
2003/7/3 22:45,24.9,0,90,0,80.3,0,23.4,0,,0,25.7,0
2003/7/3 23:00,24.7,0,91,0,79.9,0,23.5,0,,0,25.6,0
2003/7/3 23:15,24.2,0,93,0,79.6,0,23.5,0,,0,25.6,0
2003/7/3 23:30,23.8,0,93,0,78.9,0,23.5,0,,0,25.4,0
2003/7/3 23:45,23.4,0,94,0,78.3,0,23.6,0,,0,25.3,0
2003/7/4 0:00,23.2,0,94,0,77.9,0,23.6,0,,0,25.1,0
2003/7/4 0:15,23.2,0,92,0,77.4,0,23.2,0,,0,25,0
2003/7/4 0:30,23,0,91,0,77.3,0,23.2,0,,0,24.9,0
2003/7/4 0:45,23.1,0,89,0,76.7,0,23.2,0,,0,24.9,0
2003/7/4 1:00,23.1,0,89,0,76.4,0,23.3,0,,0,24.9,0
2003/7/4 1:15,23,0,87,0,75.9,0,23.3,0,,0,24.8,0
2003/7/4 1:30,23,0,87,0,75.6,0,23.3,0,,0,24.7,0
2003/7/4 1:45,22.8,0,89,0,75.1,0,23.3,0,,0,24.7,0
2003/7/4 2:00,22.6,0,93,0,75.2,0,23.3,0,,0,24.6,0
2003/7/4 2:15,22.5,0,95,0,76.2,0,23.4,0,,0,24.6,0
2003/7/4 2:30,22.3,0,96,0,75.9,0,23.4,0,,0,24.5,0
2003/7/4 2:45,22.3,0,97,0,75.9,0,23.4,0,,0,24.4,0
2003/7/4 3:00,22.1,0,98,0,75.9,0,23.4,0,,0,24.2,0
2003/7/4 3:15,22,0,99,0,76,0,23.4,0,,0,24.1,0
2003/7/4 3:30,22,0,99,0,76.1,0,23.4,0,,0,24.1,0
2003/7/4 3:45,22.1,0,98,0,76.3,0,23.5,0,,0,24.1,0
2003/7/4 4:00,22,0,98,0,76.4,0,23.5,0,,0,24,0
2003/7/4 4:15,21.9,0,98,0,76,0,23.5,0,,0,23.9,0
2003/7/4 4:30,21.8,0,97,0,76,0,23.5,0,,0,23.8,0
2003/7/4 4:45,21.8,0,97,0,75.8,0,23.5,0,,0,23.8,0
2003/7/4 5:00,21.8,0,96,0,75.8,0,23.5,0,,0,23.7,0
2003/7/4 5:15,21.8,0,95,0,75.7,0,23.5,0,,0,23.6,0
2003/7/4 5:30,21.8,0,95,0,75.6,0,23.5,0,,0,23.6,0
2003/7/4 5:45,21.8,0,94,0,75.6,0,23.5,0,,0,23.5,0
2003/7/4 6:00,21.8,0,94,0,75.5,0,23.5,0,,0,23.5,0
2003/7/4 6:15,21.7,0,94,0,75.6,0,23.5,0,,0,23.4,0
2003/7/4 6:30,21.7,0,93,0,75.7,0,23.5,0,,0,23.4,0
2003/7/4 6:45,21.8,0,93,0,75.7,0,23.5,0,,0,23.3,0
2003/7/4 7:00,21.9,0,91,0,75.8,0,23.6,0,,0,23.3,0
2003/7/4 7:15,22.1,0,90,0,76.2,0,23.2,0,,0,23.3,0
2003/7/4 7:30,22.2,0,89,0,76.5,0,23.2,0,,0,23.3,0
2003/7/4 7:45,22.2,0,89,0,76.8,0,23.5,0,,0,23.3,0
2003/7/4 8:00,22.6,0,88,0,76.9,0,23.5,0,,0,23.3,0
2003/7/4 8:15,22.7,0,86,0,77.1,0,23.5,0,,0,23.4,0
2003/7/4 8:30,23.5,0,81,0,77,0,23.5,0,,0,23.5,0
2003/7/4 8:45,24.2,0,76,0,76.7,0,23.5,0,,0,23.6,0
2003/7/4 9:00,24.7,0,72,0,76.3,0,23.5,0,,0,23.7,0
2003/7/4 9:15,24.7,0,71,0,76.1,0,23.5,0,,0,23.8,0
2003/7/4 9:30,25.2,0,69,0,76.1,0,23.5,0,,0,23.9,0
2003/7/4 9:45,26.6,0,63,0,76.3,0,23.5,0,,0,24,0
2003/7/4 10:00,26.9,0,62,0,76.2,0,23.5,0,,0,24.2,0
2003/7/4 10:15,26.9,0,61,0,76.1,0,23.5,0,,0,24.3,0
2003/7/4 10:30,26.3,0,65,0,75.7,0,23.1,0,,0,24.3,0
2003/7/4 10:45,26.4,0,63,0,75.2,0,23.1,0,,0,24.4,0
2003/7/4 11:00,27.5,0,59,0,75.2,0,23.1,0,,0,24.4,0
2003/7/4 11:15,28.1,0,59,0,75,0,23.2,0,,0,24.5,0
2003/7/4 11:30,28.1,0,59,0,75,0,23.2,0,,0,24.6,0
2003/7/4 11:45,28.1,0,59,0,75.2,0,23.2,0,,0,24.6,0
2003/7/4 12:00,28.2,0,57,0,72,0,23.2,0,,0,25,0
2003/7/4 12:15,27.2,0,61,0,73.8,0,23.2,0,,0,25,0
2003/7/4 12:30,26.1,0,72,0,73.9,0,23.2,0,,0,24.9,0
2003/7/4 12:45,25,0,77,0,76.4,0,23.3,0,,0,24.8,0
2003/7/4 13:00,24.8,0,80,0,76.8,0,23.3,0,,0,24.7,0
2003/7/4 13:15,23.8,0,87,0,77,0,23.3,0,,0,24.6,0
2003/7/4 13:30,22.7,0,90,0,77.6,0,23.3,0,,0,24.5,0
2003/7/4 13:45,22.6,0,92,0,77.5,0,23,0,,0,24.4,0
2003/7/4 14:00,22.4,0,91,0,77.2,0,23.1,0,,0,24.3,0
2003/7/4 14:15,22.9,0,90,0,77.4,0,22.9,0,,0,24.3,0
2003/7/4 14:30,22.6,0,92,0,77.5,0,22.9,0,,0,24.2,0
2003/7/4 14:45,22.7,0,92,0,78,0,22.9,0,,0,24.2,0
2003/7/4 15:00,22.8,0,89,0,77.5,0,23,0,,0,24.1,0
2003/7/4 15:15,24.7,0,82,0,77.2,0,23,0,,0,24,0
2003/7/4 15:30,26.4,0,73,0,76.9,0,23,0,,0,24.1,0
2003/7/4 15:45,26.5,0,70,0,76.7,0,23.1,0,,0,24.1,0
2003/7/4 16:00,26.2,0,69,0,76.7,0,23.1,0,,0,24.2,0
2003/7/4 16:15,25.8,0,72,0,76.8,0,23.1,0,,0,24.3,0
2003/7/4 16:30,26.6,0,67,0,76.7,0,23.1,0,,0,24.3,0
2003/7/4 16:45,25.7,0,71,0,76.4,0,23.1,0,,0,24.4,0
2003/7/4 17:00,25.2,0,75,0,76.7,0,22.9,0,,0,24.4,0
2003/7/4 17:15,24.7,0,78,0,76.7,0,22.9,0,,0,24.4,0
2003/7/4 17:30,24.2,0,81,0,77.1,0,23,0,,0,24.4,0
2003/7/4 17:45,23.9,0,83,0,77.9,0,23,0,,0,24.3,0
2003/7/4 18:00,23.8,0,84,0,77.9,0,23,0,,0,24.3,0
2003/7/4 18:15,23.5,0,86,0,78.3,0,23.1,0,,0,24.3,0
2003/7/4 18:30,23.4,0,88,0,78.6,0,23.1,0,,0,24.2,0
2003/7/4 18:45,23.4,0,88,0,78.5,0,23.1,0,,0,24.2,0
2003/7/4 19:00,23.4,0,88,0,78.8,0,23.1,0,,0,24.1,0
2003/7/4 19:15,23.4,0,89,0,79,0,23.2,0,,0,24.1,0
2003/7/4 19:30,23.3,0,90,0,79.1,0,23.2,0,,0,24.1,0
2003/7/4 19:45,23.2,0,91,0,79,0,23.1,0,,0,24.1,0
2003/7/4 20:00,23.2,0,92,0,79.2,0,23.1,0,,0,24.1,0
2003/7/4 20:15,23.2,0,93,0,79.6,0,23.1,0,,0,24.1,0
2003/7/4 20:30,23.3,0,94,0,79.5,0,23.1,0,,0,24.1,0
2003/7/4 20:45,23.5,0,96,0,79.5,0,23.2,0,,0,24.1,0
2003/7/4 21:00,23.6,0,97,0,80,0,23.2,0,,0,24.1,0
2003/7/4 21:15,23.7,0,97,0,80.2,0,23.2,0,,0,24.1,0
2003/7/4 21:30,23.8,0,97,0,80.1,0,23.2,0,,0,24.2,0
2003/7/4 21:45,23.9,0,97,0,80.6,0,23.3,0,,0,24.2,0
2003/7/4 22:00,24,0,98,0,83.2,0,23.3,0,,0,24.3,0
2003/7/4 22:15,24.1,0,97,0,85.3,0,23.3,0,,0,24.4,0
2003/7/4 22:30,24.2,0,97,0,86.3,0,23.3,0,,0,24.5,0
2003/7/4 22:45,24.3,0,97,0,85.2,0,23.2,0,,0,24.5,0
2003/7/4 23:00,24.3,0,97,0,86.6,0,23.3,0,,0,24.6,0
2003/7/4 23:15,24.3,0,97,0,87.1,0,23.3,0,,0,24.6,0
2003/7/4 23:30,24.2,0,98,0,87.5,0,23.3,0,,0,24.7,0
2003/7/4 23:45,24.2,0,98,0,86.5,0,23.3,0,,0,24.7,0
2003/7/5 0:00,24.2,0,99,0,84.9,0,23.4,0,,0,24.7,0
2003/7/5 0:15,24.3,0,99,0,84.4,0,23.2,0,,0,24.6,0
2003/7/5 0:30,24.3,0,99,0,84.2,0,23.2,0,,0,24.6,0
2003/7/5 0:45,24.3,0,99,0,84.2,0,23.2,0,,0,24.6,0
2003/7/5 1:00,24.4,0,99,0,84.5,0,23.2,0,,0,24.6,0
2003/7/5 1:15,24.6,0,99,0,84.1,0,23.3,0,,0,24.6,0
2003/7/5 1:30,24.7,0,99,0,84.8,0,23.3,0,,0,24.6,0
2003/7/5 1:45,24.8,0,99,0,84.9,0,23.1,0,,0,24.7,0
2003/7/5 2:00,24.9,0,99,0,85.2,0,23.1,0,,0,24.7,0
2003/7/5 2:15,24.9,0,99,0,84.9,0,23.1,0,,0,24.7,0
2003/7/5 2:30,24.9,0,99,0,84.7,0,23.2,0,,0,24.8,0
2003/7/5 2:45,25,0,99,0,85,0,23.2,0,,0,24.8,0
2003/7/5 3:00,25,0,99,0,85.1,0,23.2,0,,0,24.8,0
2003/7/5 3:15,25,0,99,0,85.3,0,23.3,0,,0,24.9,0
2003/7/5 3:30,25.1,0,99,0,85.1,0,23.3,0,,0,24.9,0
2003/7/5 3:45,25.1,0,99,0,85.2,0,23.3,0,,0,24.9,0
2003/7/5 4:00,25.1,0,99,0,85.5,0,23.4,0,,0,24.9,0
2003/7/5 4:15,25.2,0,99,0,85.4,0,23.4,0,,0,25,0
2003/7/5 4:30,25.2,0,99,0,84.9,0,23.4,0,,0,25,0
2003/7/5 4:45,25.2,0,99,0,85.5,0,23.5,0,,0,25,0
2003/7/5 5:00,25.2,0,99,0,85.3,0,23.5,0,,0,25,0
2003/7/5 5:15,25.2,0,98,0,84.9,0,23.5,0,,0,25,0
2003/7/5 5:30,25.3,0,97,0,84.9,0,23.6,0,,0,25,0
2003/7/5 5:45,25.3,0,97,0,85,0,23.6,0,,0,25.1,0
2003/7/5 6:00,25.4,0,95,0,85.2,0,23.6,0,,0,25.1,0
2003/7/5 6:15,25.4,0,94,0,84.9,0,23.7,0,,0,25.1,0
2003/7/5 6:30,25.5,0,94,0,84.9,0,23.7,0,,0,25.1,0
2003/7/5 6:45,25.6,0,93,0,85.1,0,23.7,0,,0,25.1,0
2003/7/5 7:00,25.7,0,92,0,85,0,23.7,0,,0,25.1,0
2003/7/5 7:15,25.8,0,92,0,85.4,0,23.8,0,,0,25.1,0
2003/7/5 7:30,25.9,0,90,0,86.7,0,23.8,0,,0,25.2,0
2003/7/5 7:45,25.8,0,91,0,88.5,0,23.5,0,,0,25.2,0
2003/7/5 8:00,25.8,0,90,0,88.5,0,23.5,0,,0,25.2,0
2003/7/5 8:15,25.9,0,90,0,88.2,0,23.5,0,,0,25.3,0
2003/7/5 8:30,25.8,0,90,0,87.4,0,23.5,0,,0,25.3,0
2003/7/5 8:45,25.9,0,90,0,87.5,0,23.6,0,,0,25.3,0
2003/7/5 9:00,26.3,0,88,0,86.4,0,23.4,0,,0,25.3,0
2003/7/5 9:15,26.4,0,87,0,86.7,0,23.4,0,,0,25.4,0
2003/7/5 9:30,26.6,0,87,0,87.1,0,23.2,0,,0,25.4,0
2003/7/5 9:45,26.8,0,84,0,86,0,23.2,0,,0,25.5,0
2003/7/5 10:00,26.6,0,85,0,85.2,0,23.3,0,,0,25.5,0
2003/7/5 10:15,27.1,0,83,0,85.6,0,23.3,0,,0,25.5,0
2003/7/5 10:30,28.3,0,80,0,86.3,0,23.3,0,,0,25.6,0
2003/7/5 10:45,27.5,0,78,0,85.3,0,23.4,0,,0,25.6,0
2003/7/5 11:00,27.1,0,81,0,84.8,0,23.4,0,,0,25.7,0
2003/7/5 11:15,27.5,0,81,0,85,0,23.4,0,,0,25.7,0
2003/7/5 11:30,28.3,0,78,0,84.8,0,23.5,0,,0,25.7,0
2003/7/5 11:45,28.6,0,74,0,84.1,0,23.5,0,,0,25.8,0
2003/7/5 12:00,28.8,0,71,0,83.2,0,23.6,0,,0,25.8,0
2003/7/5 12:15,29.2,0,68,0,81.4,0,23.6,0,,0,25.9,0
2003/7/5 12:30,29.2,0,67,0,80,0,23.6,0,,0,26,0
2003/7/5 12:45,28.7,0,71,0,81.3,0,23.7,0,,0,26,0
2003/7/5 13:00,28.8,0,71,0,81.7,0,23.7,0,,0,26.1,0
2003/7/5 13:15,29,0,69,0,80.6,0,23.5,0,,0,26.1,0
2003/7/5 13:30,29.4,0,71,0,82.4,0,23.5,0,,0,26.1,0
2003/7/5 13:45,29.5,0,68,0,81.8,0,23.5,0,,0,26.2,0
2003/7/5 14:00,29.7,0,66,0,80.3,0,23.6,0,,0,26.2,0
2003/7/5 14:15,29.6,0,67,0,80.2,0,23.3,0,,0,26.3,0
2003/7/5 14:30,29.6,0,67,0,80.7,0,23.4,0,,0,26.3,0
2003/7/5 14:45,28.7,0,71,0,80.8,0,23.4,0,,0,26.4,0
2003/7/5 15:00,28.1,0,75,0,81.2,0,23.4,0,,0,26.5,0
2003/7/5 15:15,27.9,0,77,0,81.2,0,23.5,0,,0,26.5,0
2003/7/5 15:30,27.8,0,78,0,81.8,0,23.5,0,,0,26.5,0
2003/7/5 15:45,28,0,79,0,82.8,0,23.5,0,,0,26.4,0
2003/7/5 16:00,28.4,0,77,0,82.8,0,23.6,0,,0,26.4,0
2003/7/5 16:15,28.8,0,75,0,83.3,0,23.6,0,,0,26.4,0
2003/7/5 16:30,29.1,0,73,0,83.4,0,23.7,0,,0,26.5,0
2003/7/5 16:45,29.4,0,71,0,82.9,0,23.7,0,,0,26.5,0
2003/7/5 17:00,28.4,0,76,0,83.3,0,23.7,0,,0,26.6,0
2003/7/5 17:15,28.3,0,77,0,83.5,0,23.8,0,,0,26.6,0
2003/7/5 17:30,28.3,0,76,0,82.9,0,23.8,0,,0,26.6,0
2003/7/5 17:45,28.2,0,75,0,82.2,0,23.9,0,,0,26.6,0
2003/7/5 18:00,28.4,0,74,0,81.3,0,23.9,0,,0,26.6,0
2003/7/5 18:15,28.1,0,76,0,82.3,0,23.9,0,,0,26.7,0
2003/7/5 18:30,27.7,0,79,0,82.8,0,23.5,0,,0,26.7,0
2003/7/5 18:45,27.6,0,79,0,83,0,23.6,0,,0,26.6,0
2003/7/5 19:00,27.3,0,79,0,82,0,23.6,0,,0,26.6,0
2003/7/5 19:15,27,0,82,0,82.6,0,23.6,0,,0,26.6,0
2003/7/5 19:30,26.7,0,84,0,83.3,0,23.7,0,,0,26.6,0
2003/7/5 19:45,26.5,0,85,0,84.2,0,23.7,0,,0,26.5,0
2003/7/5 20:00,26.4,0,85,0,83.7,0,23.8,0,,0,26.5,0
2003/7/5 20:15,26.3,0,86,0,82.7,0,23.8,0,,0,26.4,0
2003/7/5 20:30,26.2,0,87,0,82.6,0,23.6,0,,0,26.4,0
2003/7/5 20:45,26,0,88,0,82.8,0,23.6,0,,0,26.4,0
2003/7/5 21:00,25.8,0,88,0,82.8,0,23.6,0,,0,26.4,0